SCP
0 0 0 0 0 0 0 0 0 0 -0 -0 -0 0 0 0 0 0 0 0 0 0 0 0 0 0 0 0 0 0 0 0 0 0 0 0 0 0 0 0 0 0 0
0 0 0 0 0 0 0 0 0 0 0 -0 -0 -0 0 -0 0 0 0 0 -0 0 0 0 0 0 0 0 0 0 0 0 0 0 0 0 0 0 0 0 0 0 0
0 0 0 0 0 0 0 0 0 0 0 0 0 -0 0 0 0 0 0 0 0 0 0 0 0 0 0 0 0 0 0 0 0 0 0 0 0 0 0 0 0 0 0
0 0 0 0 0 0 0 0 0 0 0 0 0 -0 -0 0 -0 0 0 0 0 0 0 0 0 0 0 0 0 0 0 0 0 0 0 0 0 0 0 0 0 0 0
0 0 0 0 0 0 0 0 0 0 0 0 0 0 -0 -0 -0 0 0 0 0 0 0 0 0 0 0 0 0 0 0 0 0 0 0 0 0 0 0 0 0 0 0
0 0 0 0 0 0 0 0 0 0 0 0 0 -0 0 -0 0 0 0 0 0 0 0 0 0 0 0 0 0 0 0 0 0 0 0 0 0 0 0 0 0 0 0
0 0 0 0 0 0 0 0 0 0 0 0 0 -0 -0 -0 0 0 0 0 0 0 0 0 0 0 0 0 0 0 0 0 0 0 0 0 0 0 0 0 0 0 0
0 0 0 0 0 0 0 0 0 0 0 0 0 0 -0 -0 0 0 0 0 0 0 0 0 0 0 0 0 0 0 0 0 0 0 0 0 0 0 0 0 0 0 0
0 0 0 0 0 0 0 0 0 0 0 0 0 -0 -0 -0 0 0 0 -0 0 0 0 0 0 0 0 0 0 0 0 0 0 0 0 0 0 0 0 0 0 0 0
0 0 0 0 0 0 0 0 0 0 0 0 0 -0 -0 -0 0 0 0 -0 0 0 0 0 0 0 0 0 0 0 0 0 0 0 0 0 0 0 0 0 0 0 0
0 0 0 0 0 0 0 0 0 0 0 0 0 -0 -0 -0 -0 0 0 -0 0 -0 0 0 0 0 0 0 0 0 0 0 0 0 0 0 0 0 0 0 0 0 0
0 0 0 0 0 0 0 0 0 0 0 0 0 -0 -0 -0 0 0 0 0 0 0 0 0 0 0 0 0 0 0 0 0 0 0 0 0 0 0 0 0 0 0 0
0 0 0 0 0 0 0 0 0 0 0 0 -0 -0 -0 -0 -0 0 0 0 0 0 0 0 0 0 0 0 0 0 0 0 0 0 0 0 0 0 0 0 0 0 0
0 0 0 0 0 0 0 0 0 0 0 0 0 -0 -0 0 0 0 0 0 0 0 0 0 0 0 0 0 0 0 0 0 0 0 0 0 0 0 0 0 0 0 0
0 0 0 0 0 0 0 0 0 0 0 0 0 -0 -0 0 0 0 0 0 0 0 0 -0 0 0 0 0 0 0 0 0 0 0 0 0 0 0 0 0 0 0 0
0 0 0 0 0 0 0 0 0 0 0 0 0 -0 -0 -0 0 0 0 0 0 0 -0 0 0 0 0 0 0 0 0 0 0 0 0 0 0 0 0 0 0 0 0
0 0 0 0 0 0 0 0 0 0 0 0 0 0 0 -0 0 0 0 0 0 0 -0 0 0 0 0 0 0 0 0 0 0 0 0 0 0 0 0 0 0 0 0
0 0 0 0 0 0 0 0 0 0 0 0 0 0 0 0 0 0 0 0 0 0 0 0 0 0 0 0 0 0 0 0 0 0 0 0 0 0 0 0 0 0 0
0 0 0 0 0 0 0 0 0 0 0 0 0 0 0 0 0 0 0 0 0 0 0 0 0 0 0 0 0 0 0 0 0 0 0 0 0 0 0 0 0 0 0
0 0 0 0 0 0 0 0 0 0 0 0 0 0 0 0 0 0 0 0 0 0 0 0 0 0 0 0 0 0 0 0 0 0 0 0 0 0 0 0 0 0 0
0 0 0 0 0 0 0 0 0 0 0 0 0 0 -0 0 0 0 0 0 0 0 0 0 0 0 0 0 0 0 0 0 0 0 0 0 0 0 0 0 0 0 0
0 0 0 0 0 0 0 0 0 0 0 0 0 0 -0 -0 0 0 0 0 0 0 0 0 0 0 0 0 0 0 0 0 0 0 0 0 0 0 0 0 0 0 0
0 0 0 0 0 0 0 0 0 0 0 0 0 0 0 0 0 0 0 0 0 0 0 0 0 0 0 0 0 0 0 0 0 0 0 0 0 0 0 0 0 0 0
0 0 0 0 0 0 0 0 0 0 0 0 0 0 0 0 0 0 0 0 0 0 0 0 0 0 0 0 0 0 0 0 0 0 0 0 0 0 0 0 0 0 0
0 0 0 0 0 0 0 0 0 0 0 0 0 0 0 0 0 0 0 0 0 0 0 0 0 0 0 0 0 0 0 0 0 0 0 0 0 0 0 0 0 0 0
0 0 0 0 0 0 0 0 0 0 0 0 0 0 0 0 0 0 0 0 0 0 0 0 0 0 0 0 0 0 0 0 0 0 0 0 0 0 0 0 0 0 0
Wind_Speed_500mb
50 54 56 56 57 57 60 64 68 72 76 77 80 83 80 80 76 68 59 58 78 82 100 83 111 94 110 104 103 99 102 95 91 71 63 58 64 56 40 46 58 64 65
49 51 53 55 55 57 59 61 64 69 72 77 79 81 84 80 79 73 79 60 53 56 85 107 97 99 97 104 107 112 108 96 93 86 70 73 75 60 51 45 43 59 62
52 51 51 52 54 55 58 62 64 67 69 74 77 80 84 83 82 73 80 69 47 43 45 85 80 91 98 96 98 89 91 86 87 81 76 78 69 68 63 61 58 50 56
56 52 51 50 52 56 58 61 65 67 68 70 73 75 77 81 79 80 80 71 54 40 33 42 75 88 85 82 90 76 79 83 71 72 80 71 75 77 66 62 57 53 54
58 54 51 50 51 54 58 62 65 67 68 67 69 72 73 73 77 81 80 75 63 45 34 25 46 60 60 66 63 66 77 71 67 71 88 80 83 87 91 80 56 56 58
58 55 52 52 51 53 57 63 68 69 68 69 67 70 72 71 68 72 75 76 66 56 38 25 18 23 44 48 56 60 63 64 65 77 89 101 98 84 74 66 60 60 57
55 56 54 53 54 55 59 63 67 71 70 69 72 70 70 68 65 63 66 69 68 59 53 36 17 20 24 32 43 48 51 51 60 61 91 105 97 92 79 60 53 58 64
60 59 57 55 56 58 62 65 68 72 71 73 74 75 70 68 64 59 59 62 59 53 45 42 32 25 14 25 30 42 47 49 50 53 59 69 86 74 60 57 53 47 61
60 57 58 57 59 61 64 68 71 72 75 75 74 73 72 64 63 57 55 56 58 56 53 41 36 31 28 17 24 30 38 43 45 46 46 50 56 61 71 66 65 70 74
58 56 55 56 59 64 67 70 73 74 75 76 73 64 62 61 55 51 46 51 52 52 52 46 39 36 24 22 15 20 24 30 37 45 45 48 50 51 53 60 65 74 60
57 55 54 55 58 63 68 72 73 74 73 68 69 63 57 53 56 49 40 42 47 51 48 50 47 44 36 24 21 19 16 21 21 36 45 47 54 61 62 61 67 69 63
54 53 54 55 60 65 70 71 68 66 66 65 63 62 57 54 53 50 44 40 41 44 47 43 44 43 43 30 25 16 17 21 23 22 26 40 52 58 59 61 63 66 69
48 49 52 57 61 64 68 65 62 58 57 58 59 60 60 58 54 50 48 49 46 44 42 44 39 39 39 32 26 18 15 20 23 25 25 32 41 51 58 63 65 68 63
44 48 53 58 60 59 57 56 55 52 51 50 53 59 61 60 56 50 57 59 59 57 52 49 43 35 35 39 33 27 17 9 20 26 26 28 34 44 55 64 67 66 65
47 51 54 57 54 52 50 49 47 45 44 47 51 55 60 59 53 52 52 56 59 58 63 57 46 33 27 30 27 22 16 10 5 17 22 26 31 38 51 62 65 66 70
49 53 54 53 48 46 46 46 34 41 39 38 39 39 46 44 47 50 48 48 49 49 51 44 36 29 26 22 25 23 19 14 5 10 18 23 26 32 42 54 67 73 73
48 48 49 45 42 41 40 42 51 38 41 38 37 38 38 42 42 44 47 45 43 41 40 37 34 30 28 26 23 24 21 20 17 4 11 23 25 28 35 46 62 73 78
45 44 41 40 38 37 39 42 45 49 48 44 36 37 38 40 40 41 39 38 37 31 35 36 34 31 29 28 25 22 23 15 15 10 9 13 22 27 32 39 53 71 74
40 38 38 36 37 39 41 41 39 41 45 47 45 35 35 39 39 36 36 37 40 39 38 36 34 31 29 28 27 24 22 24 14 12 7 8 13 21 27 33 42 59 70
34 36 38 39 40 42 41 39 39 41 44 46 46 45 43 42 40 41 39 39 39 40 41 40 37 34 32 30 28 25 22 21 22 13 9 5 9 19 22 26 35 45 62
35 35 38 39 40 39 36 38 41 43 46 47 46 43 44 42 46 46 43 40 40 41 43 43 40 38 35 32 30 28 25 23 22 23 16 9 7 14 21 21 25 34 46
37 33 34 34 34 37 38 39 41 44 46 49 48 44 42 43 41 42 41 40 40 41 42 45 44 40 36 33 31 29 27 24 23 24 25 18 11 9 15 20 19 25 37
35 34 33 33 35 38 40 40 43 44 45 47 48 48 46 45 44 43 42 41 42 43 44 44 42 41 36 34 31 30 28 25 24 25 26 26 23 15 12 16 23 23 29
35 35 35 34 35 39 42 44 45 45 46 47 48 48 48 48 48 46 44 43 43 43 44 45 43 40 39 35 32 31 29 27 25 24 25 29 29 28 19 16 20 26 23
36 37 35 36 39 41 44 45 47 48 49 49 51 51 51 50 50 48 46 45 44 44 44 44 44 41 38 38 36 32 31 30 28 27 25 27 31 31 33 24 20 24 27
39 39 37 37 41 43 46 49 51 52 53 53 54 54 54 54 52 50 49 48 46 46 47 46 45 43 40 39 38 37 34 32 31 29 29 27 27 33 35 37 28 24 28
Wind_Direction_500mb
334 335 338 342 345 348 351 353 355 354 356 356 350 349 348 349 345 333 321 297 265 253 241 247 239 243 242 245 242 240 240 239 236 233 238 235 219 216 239 245 231 230 233
329 330 332 335 339 342 346 349 350 352 353 354 356 351 350 350 350 348 344 325 286 273 247 242 243 238 246 242 254 243 234 232 232 238 225 218 219 217 219 238 246 236 230
323 323 326 329 333 338 341 343 344 345 348 349 350 356 354 351 353 351 351 347 305 288 266 243 254 243 240 237 242 235 233 231 231 229 224 212 217 217 217 222 233 235 235
316 317 319 324 329 333 336 338 338 339 341 344 345 348 353 354 351 354 354 350 342 309 276 271 256 246 239 241 233 237 235 226 225 222 215 211 213 214 216 223 223 228 233
308 310 312 316 322 327 331 335 336 335 334 337 340 340 345 350 354 352 353 355 356 338 297 265 264 253 242 232 231 233 231 230 225 217 214 209 209 212 215 218 222 236 235
304 304 305 310 317 322 327 330 332 333 331 331 335 336 338 341 345 350 351 351 358 1 341 304 293 256 251 235 227 221 227 225 224 219 215 212 215 217 216 211 221 234 230
301 300 299 305 311 316 322 326 328 329 330 329 329 332 332 334 337 340 345 348 351 360 5 356 335 296 245 228 231 215 213 215 218 223 219 211 215 220 220 218 219 227 241
294 293 296 301 306 312 317 322 326 325 327 328 327 327 327 328 328 330 334 338 345 348 356 13 1 340 303 259 227 224 208 211 209 214 221 223 227 223 216 223 220 231 247
292 290 292 299 304 310 314 319 323 323 324 324 325 324 323 325 324 326 327 329 334 339 345 360 5 347 359 302 256 240 223 211 205 218 218 218 219 221 227 226 213 225 233
288 287 290 295 302 308 313 318 320 321 320 321 322 324 323 321 322 330 337 324 324 329 336 338 347 352 359 350 305 266 246 227 215 220 216 218 216 216 214 219 221 229 230
285 286 288 294 301 307 311 315 316 317 318 319 319 323 323 320 318 323 338 331 328 321 325 332 337 348 343 345 345 297 284 262 230 226 220 217 218 217 213 213 218 226 226
282 285 289 295 302 306 309 311 314 316 318 320 320 321 322 323 322 323 327 334 331 324 318 321 326 335 342 339 329 327 273 244 241 243 224 220 219 220 219 218 215 225 232
283 286 291 297 302 305 308 312 315 319 320 321 322 323 324 326 329 329 326 329 328 325 318 314 309 316 330 332 337 328 301 264 256 257 248 237 230 228 221 218 216 218 218
283 288 293 297 302 306 309 314 317 322 321 321 322 325 327 329 333 338 336 331 327 323 321 310 308 310 322 330 331 338 326 302 266 256 253 249 239 228 222 222 219 217 218
287 293 297 301 306 309 311 315 318 321 321 322 319 322 321 324 332 329 330 328 328 328 318 314 315 311 302 312 325 340 341 296 232 278 260 251 245 239 230 222 217 214 213
293 298 301 305 310 311 310 312 315 316 318 313 309 308 311 311 315 321 322 325 326 323 319 326 325 320 312 303 311 323 342 347 271 228 261 260 250 245 239 229 222 214 209
295 296 298 301 304 306 309 312 315 318 317 321 321 320 316 314 317 318 320 323 312 328 332 332 328 325 317 307 301 306 324 342 351 292 213 255 252 248 241 235 226 218 212
291 292 295 298 300 302 304 309 314 318 322 325 329 329 328 323 324 325 325 321 323 330 336 338 336 330 321 313 303 296 293 314 330 327 227 212 260 253 246 239 232 221 218
287 290 292 293 293 297 301 305 309 314 318 322 327 333 330 325 329 335 337 334 332 335 335 334 334 334 330 323 314 303 295 290 302 335 317 214 220 266 252 246 240 228 222
286 289 290 291 293 296 298 303 310 313 316 319 323 328 327 322 326 336 339 336 335 333 330 328 330 331 333 331 324 314 301 291 282 282 303 294 227 227 264 255 245 234 227
285 286 288 289 292 293 297 304 309 312 314 316 320 325 324 317 322 325 326 329 330 333 331 326 324 325 328 329 329 323 312 298 288 273 268 274 269 223 227 258 255 245 234
284 285 286 290 291 295 300 303 306 309 312 313 316 320 322 319 320 320 320 324 326 330 330 325 321 318 317 319 320 320 316 306 289 275 262 254 253 243 224 224 252 244 237
279 282 284 286 290 294 298 302 304 306 309 312 315 318 319 318 319 320 320 321 322 327 330 326 317 311 307 306 309 310 308 305 295 279 267 252 244 243 227 214 218 240 235
276 279 283 288 292 294 296 299 301 304 307 309 312 313 315 315 315 317 319 318 318 320 323 324 320 311 304 299 297 297 297 295 293 286 272 260 244 236 235 216 212 213 237
274 277 282 288 289 292 295 298 301 304 306 308 310 311 312 313 313 314 316 317 315 316 319 319 319 312 301 296 291 288 287 287 284 282 277 264 254 238 233 227 211 209 212
273 277 281 284 287 291 294 298 300 303 306 308 309 310 311 310 311 312 314 315 313 312 314 315 314 310 300 291 287 284 281 280 279 276 275 271 258 248 235 228 220 209 208
Wind_Speed_850mb
50 54 56 56 57 57 60 64 68 72 76 77 80 83 80 80 76 68 59 58 78 82 100 83 111 94 110 104 103 99 102 95 91 71 63 58 64 56 40 46 58 64 65
49 51 53 55 55 57 59 61 64 69 72 77 79 81 84 80 79 73 79 60 53 56 85 107 97 99 97 104 107 112 108 96 93 86 70 73 75 60 51 45 43 59 62
52 51 51 52 54 55 58 62 64 67 69 74 77 80 84 83 82 73 80 69 47 43 45 85 80 91 98 96 98 89 91 86 87 81 76 78 69 68 63 61 58 50 56
56 52 51 50 52 56 58 61 65 67 68 70 73 75 77 81 79 80 80 71 54 40 33 42 75 88 85 82 90 76 79 83 71 72 80 71 75 77 66 62 57 53 54
58 54 51 50 51 54 58 62 65 67 68 67 69 72 73 73 77 81 80 75 63 45 34 25 46 60 60 66 63 66 77 71 67 71 88 80 83 87 91 80 56 56 58
58 55 52 52 51 53 57 63 68 69 68 69 67 70 72 71 68 72 75 76 66 56 38 25 18 23 44 48 56 60 63 64 65 77 89 101 98 84 74 66 60 60 57
55 56 54 53 54 55 59 63 67 71 70 69 72 70 70 68 65 63 66 69 68 59 53 36 17 20 24 32 43 48 51 51 60 61 91 105 97 92 79 60 53 58 64
60 59 57 55 56 58 62 65 68 72 71 73 74 75 70 68 64 59 59 62 59 53 45 42 32 25 14 25 30 42 47 49 50 53 59 69 86 74 60 57 53 47 61
60 57 58 57 59 61 64 68 71 72 75 75 74 73 72 64 63 57 55 56 58 56 53 41 36 31 28 17 24 30 38 43 45 46 46 50 56 61 71 66 65 70 74
58 56 55 56 59 64 67 70 73 74 75 76 73 64 62 61 55 51 46 51 52 52 52 46 39 36 24 22 15 20 24 30 37 45 45 48 50 51 53 60 65 74 60
57 55 54 55 58 63 68 72 73 74 73 68 69 63 57 53 56 49 40 42 47 51 48 50 47 44 36 24 21 19 16 21 21 36 45 47 54 61 62 61 67 69 63
54 53 54 55 60 65 70 71 68 66 66 65 63 62 57 54 53 50 44 40 41 44 47 43 44 43 43 30 25 16 17 21 23 22 26 40 52 58 59 61 63 66 69
48 49 52 57 61 64 68 65 62 58 57 58 59 60 60 58 54 50 48 49 46 44 42 44 39 39 39 32 26 18 15 20 23 25 25 32 41 51 58 63 65 68 63
44 48 53 58 60 59 57 56 55 52 51 50 53 59 61 60 56 50 57 59 59 57 52 49 43 35 35 39 33 27 17 9 20 26 26 28 34 44 55 64 67 66 65
47 51 54 57 54 52 50 49 47 45 44 47 51 55 60 59 53 52 52 56 59 58 63 57 46 33 27 30 27 22 16 10 5 17 22 26 31 38 51 62 65 66 70
49 53 54 53 48 46 46 46 34 41 39 38 39 39 46 44 47 50 48 48 49 49 51 44 36 29 26 22 25 23 19 14 5 10 18 23 26 32 42 54 67 73 73
48 48 49 45 42 41 40 42 51 38 41 38 37 38 38 42 42 44 47 45 43 41 40 37 34 30 28 26 23 24 21 20 17 4 11 23 25 28 35 46 62 73 78
45 44 41 40 38 37 39 42 45 49 48 44 36 37 38 40 40 41 39 38 37 31 35 36 34 31 29 28 25 22 23 15 15 10 9 13 22 27 32 39 53 71 74
40 38 38 36 37 39 41 41 39 41 45 47 45 35 35 39 39 36 36 37 40 39 38 36 34 31 29 28 27 24 22 24 14 12 7 8 13 21 27 33 42 59 70
34 36 38 39 40 42 41 39 39 41 44 46 46 45 43 42 40 41 39 39 39 40 41 40 37 34 32 30 28 25 22 21 22 13 9 5 9 19 22 26 35 45 62
35 35 38 39 40 39 36 38 41 43 46 47 46 43 44 42 46 46 43 40 40 41 43 43 40 38 35 32 30 28 25 23 22 23 16 9 7 14 21 21 25 34 46
37 33 34 34 34 37 38 39 41 44 46 49 48 44 42 43 41 42 41 40 40 41 42 45 44 40 36 33 31 29 27 24 23 24 25 18 11 9 15 20 19 25 37
35 34 33 33 35 38 40 40 43 44 45 47 48 48 46 45 44 43 42 41 42 43 44 44 42 41 36 34 31 30 28 25 24 25 26 26 23 15 12 16 23 23 29
35 35 35 34 35 39 42 44 45 45 46 47 48 48 48 48 48 46 44 43 43 43 44 45 43 40 39 35 32 31 29 27 25 24 25 29 29 28 19 16 20 26 23
36 37 35 36 39 41 44 45 47 48 49 49 51 51 51 50 50 48 46 45 44 44 44 44 44 41 38 38 36 32 31 30 28 27 25 27 31 31 33 24 20 24 27
39 39 37 37 41 43 46 49 51 52 53 53 54 54 54 54 52 50 49 48 46 46 47 46 45 43 40 39 38 37 34 32 31 29 29 27 27 33 35 37 28 24 28
Wind_Direction_850mb
334 335 338 342 345 348 351 353 355 354 356 356 350 349 348 349 345 333 321 297 265 253 241 247 239 243 242 245 242 240 240 239 236 233 238 235 219 216 239 245 231 230 233
329 330 332 335 339 342 346 349 350 352 353 354 356 351 350 350 350 348 344 325 286 273 247 242 243 238 246 242 254 243 234 232 232 238 225 218 219 217 219 238 246 236 230
323 323 326 329 333 338 341 343 344 345 348 349 350 356 354 351 353 351 351 347 305 288 266 243 254 243 240 237 242 235 233 231 231 229 224 212 217 217 217 222 233 235 235
316 317 319 324 329 333 336 338 338 339 341 344 345 348 353 354 351 354 354 350 342 309 276 271 256 246 239 241 233 237 235 226 225 222 215 211 213 214 216 223 223 228 233
308 310 312 316 322 327 331 335 336 335 334 337 340 340 345 350 354 352 353 355 356 338 297 265 264 253 242 232 231 233 231 230 225 217 214 209 209 212 215 218 222 236 235
304 304 305 310 317 322 327 330 332 333 331 331 335 336 338 341 345 350 351 351 358 1 341 304 293 256 251 235 227 221 227 225 224 219 215 212 215 217 216 211 221 234 230
301 300 299 305 311 316 322 326 328 329 330 329 329 332 332 334 337 340 345 348 351 360 5 356 335 296 245 228 231 215 213 215 218 223 219 211 215 220 220 218 219 227 241
294 293 296 301 306 312 317 322 326 325 327 328 327 327 327 328 328 330 334 338 345 348 356 13 1 340 303 259 227 224 208 211 209 214 221 223 227 223 216 223 220 231 247
292 290 292 299 304 310 314 319 323 323 324 324 325 324 323 325 324 326 327 329 334 339 345 360 5 347 359 302 256 240 223 211 205 218 218 218 219 221 227 226 213 225 233
288 287 290 295 302 308 313 318 320 321 320 321 322 324 323 321 322 330 337 324 324 329 336 338 347 352 359 350 305 266 246 227 215 220 216 218 216 216 214 219 221 229 230
285 286 288 294 301 307 311 315 316 317 318 319 319 323 323 320 318 323 338 331 328 321 325 332 337 348 343 345 345 297 284 262 230 226 220 217 218 217 213 213 218 226 226
282 285 289 295 302 306 309 311 314 316 318 320 320 321 322 323 322 323 327 334 331 324 318 321 326 335 342 339 329 327 273 244 241 243 224 220 219 220 219 218 215 225 232
283 286 291 297 302 305 308 312 315 319 320 321 322 323 324 326 329 329 326 329 328 325 318 314 309 316 330 332 337 328 301 264 256 257 248 237 230 228 221 218 216 218 218
283 288 293 297 302 306 309 314 317 322 321 321 322 325 327 329 333 338 336 331 327 323 321 310 308 310 322 330 331 338 326 302 266 256 253 249 239 228 222 222 219 217 218
287 293 297 301 306 309 311 315 318 321 321 322 319 322 321 324 332 329 330 328 328 328 318 314 315 311 302 312 325 340 341 296 232 278 260 251 245 239 230 222 217 214 213
293 298 301 305 310 311 310 312 315 316 318 313 309 308 311 311 315 321 322 325 326 323 319 326 325 320 312 303 311 323 342 347 271 228 261 260 250 245 239 229 222 214 209
295 296 298 301 304 306 309 312 315 318 317 321 321 320 316 314 317 318 320 323 312 328 332 332 328 325 317 307 301 306 324 342 351 292 213 255 252 248 241 235 226 218 212
291 292 295 298 300 302 304 309 314 318 322 325 329 329 328 323 324 325 325 321 323 330 336 338 336 330 321 313 303 296 293 314 330 327 227 212 260 253 246 239 232 221 218
287 290 292 293 293 297 301 305 309 314 318 322 327 333 330 325 329 335 337 334 332 335 335 334 334 334 330 323 314 303 295 290 302 335 317 214 220 266 252 246 240 228 222
286 289 290 291 293 296 298 303 310 313 316 319 323 328 327 322 326 336 339 336 335 333 330 328 330 331 333 331 324 314 301 291 282 282 303 294 227 227 264 255 245 234 227
285 286 288 289 292 293 297 304 309 312 314 316 320 325 324 317 322 325 326 329 330 333 331 326 324 325 328 329 329 323 312 298 288 273 268 274 269 223 227 258 255 245 234
284 285 286 290 291 295 300 303 306 309 312 313 316 320 322 319 320 320 320 324 326 330 330 325 321 318 317 319 320 320 316 306 289 275 262 254 253 243 224 224 252 244 237
279 282 284 286 290 294 298 302 304 306 309 312 315 318 319 318 319 320 320 321 322 327 330 326 317 311 307 306 309 310 308 305 295 279 267 252 244 243 227 214 218 240 235
276 279 283 288 292 294 296 299 301 304 307 309 312 313 315 315 315 317 319 318 318 320 323 324 320 311 304 299 297 297 297 295 293 286 272 260 244 236 235 216 212 213 237
274 277 282 288 289 292 295 298 301 304 306 308 310 311 312 313 313 314 316 317 315 316 319 319 319 312 301 296 291 288 287 287 284 282 277 264 254 238 233 227 211 209 212
273 277 281 284 287 291 294 298 300 303 306 308 309 310 311 310 311 312 314 315 313 312 314 315 314 310 300 291 287 284 281 280 279 276 275 271 258 248 235 228 220 209 208